Location: Cactus School
(34.5700°N, 118.0931°W)
Time: 08:50:25
(UTC-07:00)

Vanguard 1 Rocket - Pass Details

Date: 19 April 2024
Orbit: 650 x 4220 km, 34.3° (Epoch: 22 May)

Event Time Altitude Azimuth Distance (km) Brightness Sun altitude
Rises 01:52:29 0° 280° (W) 5,000 11.1 -41.8°
Enters shadow 01:53:01 - 279° (W) 4,879 11.0 -41.8°
Exits shadow 02:22:25 17° 155° (SSE) 6,280 11.3 -39.2°
Drops below altitude 10° 02:27:01 10° 150° (SSE) 7,154 11.7 -38.7°
Sets 02:33:50 0° 143° (SE) 8,398 12.1 -38.0°
